User: anonymous   Login
Location: ??
(35.4032°N, 139.3073°E)
Time: 01:18:22
(UTC+00:00)
Language:

Cosmos 1470 Rocket - Orbit

View from above orbital plane
View from above orbital plane
View from above satellite
View from above satellite

Ground track
Ground track

The orbit data is extracted from the following two-line orbital elements,

1 14148U 83061B   24175.60859893  .00000553  00000-0  62521-4 0  9996
2 14148  82.5184  27.6915 0021686 156.5489 203.6721 14.84502549193768
Epoch (UTC): 23 June 2024 14:36:22
Eccentricity: 0.0021686
inclination: 82.5184°
perigee height: 600 km
apogee height: 630 km
right ascension of ascending node: 27.6915°
argument of perigee: 156.5489°
revolutions per day: 14.84502549
mean anomaly at epoch: 203.6721°
orbit number at epoch: 19376

The dashed part of the orbit path shows where the satellite is in the earth's shadow,  

DLR